User: anonymous
Location: Observatorio Las Palmas
(29.0667°N, 110.9333°W)
Time: 05:07:16
(UTC-07:00)
Language:

Skynet4D Del rocket - Orbit

View from above orbital plane
View from above orbital plane
View from above satellite
View from above satellite

Ground track
Ground track

The orbit data is extracted from the following two-line orbital elements,

1 25135U 98002B   14260.77969406  .00000193  00000-0  68751-4 0  2162
2 25135 026.8847 070.3378 0356554 098.4785 017.6899 13.62258102831585
Epoch (UTC): 17 September 2014 18:42:45
Eccentricity: 0.0356554
inclination: 26.8847°
perigee height: 763 km
apogee height: 1291 km
right ascension of ascending node: 70.3378°
argument of perigee: 98.4785°
revolutions per day: 13.62258102
mean anomaly at epoch: 17.6899°
orbit number at epoch: 83158

The dashed part of the orbit path shows where the satellite is in the earth's shadow,  

DLR